Погода в Верхней Туре

Россия / Свердловская область     58°21′35″N   59°49′12″E
темп.,
°C
ветер,
м/с
пор.,
м/с
влажн.,
%
обл.,
%
осадки,
мм/ч
давл.,
гПа
погр.,
м
18 января, пн
пн1823:00−16з5118797 0.1 1006415
02:00−20з512890 0.0 1010281
05:00−21з512880 0.0 1013293
08:00−21з38900 0.0 1015181
11:00−21з411900 0.0 1018290
14:00−18з510860 0.0 1018310
17:00−19з4138626 0.0 1019361
20:00−20з41287100 0.0 1019331
19 января, вт
вт1923:00−21з2790100 0.0 1020227
02:00−22зюз399045 0.0 1021233
05:00−22з249022 0.0 102173
08:00−22зюз128972 0.0 102120
11:00−20юз019086 0.0 102120
14:00−16в118693 0.0 1020118
17:00−19в129296 0.0 101920
20:00−19в2294100 0.0 101865
20 января, ср
ср2023:00−17в2694100 0.0 1018256
02:00−16вюв3996100 1.1 1016501
05:00−15юв41095100 2.8 1015532
08:00−15вюв3796100 1.4 1014512
11:00−16юв3795100 2.1 1012473
14:00−15юв2493100 0.4 1011434
17:00−16вюв1197100 0.9 101020
20:00−17зсз0097100 0.4 100920
21 января, чт
чт2123:00−17зсз1297100 0.8 100849
02:00−16зюз3895100 0.5 1008466
05:00−17з3994100 0.9 1007454
08:00−18з3994100 0.1 1008402
11:00−19з41089100 0.2 1009461
14:00−18з4988100 0.0 1010495
17:00−18з31090100 0.1 1010484
20:00−19з3992100 0.0 1011353
22 января, пт
пт2223:00−19зюз2395100 0.0 101199
02:00−18зюз2595100 0.0 1010156
05:00−19с0198100 0.1 100920
08:00−24ссв3598100 0.4 1009217
11:00−26ссв3697100 0.8 1010296
14:00−26ссв3696100 0.4 1010363
17:00−28ссв3797100 0.6 1012375
20:00−29ссв3797100 0.2 1015348